Location: Newark
(42.8481°N, 0.4872°E)
Time: 09:25:17
(UTC+00:00)

Vanguard 1 - Pass Details

Date: 02 November 2020
Orbit: 650 x 3833 km, 34.2° (Epoch: 26 November)

Event Time Altitude Azimuth Distance (km) Brightness Sun altitude
Rises 08:37:45 0° 193° (SSW) 6,051 14.5 18.5°
Reaches altitude 10° 08:42:22 10° 181° (S) 5,498 14.6 19.1°
Maximum altitude 08:55:48 26° 132° (SE) 5,200 16.5 20.8°
Drops below altitude 10° 09:12:28 10° 86° (E) 6,942 15.0 22.8°
Sets 09:19:13 0° 76° (ENE) 7,905 15.0 23.6°
